Alva, OK

12:10 AM CDT on October 17, 2017 (GMT -0500)
Alva Regional

Weather History for KAVK - January, 2014

Change the Weather History Date:

Saturday, January 18, 2014

  Actual Average Record
Temperature  
Mean Temperature 46 °F -  
Max Temperature 59 °F 46 °F 72 °F (1950)
Min Temperature 32 °F 24 °F 6 °F (1977)
Degree Days  
Heating Degree Days 20    
Moisture  
Dew Point 19 °F    
Average Humidity 40    
Maximum Humidity 55    
Minimum Humidity 20    
Precipitation  
Precipitation 0.00 in - - ()
Sea Level Pressure  
Sea Level Pressure 30.06 in    
Wind  
Wind Speed 13 mph (NW)    
Max Wind Speed 30 mph    
Max Gust Speed 34 mph    
Visibility 10 miles    
Events      
Averages and records for this station are not official NWS values.
T = Trace of Precipitation, MM = Missing Value Source: NWS Daily Summary

Daily Weather History Graph

Daily Weather History Graph

Search for Another Location

Airport or City:

Trip Planner

Search our weather history database for the weather conditions in past years. The results will help you decide how hot, cold, wet, or windy it might be!

Date:

Astronomy

Jan. 18, 2014 Rise Set
Actual Time 7:45 AM CST 5:45 PM CST
Civil Twilight 7:17 AM CST 6:13 PM CST
Nautical Twilight 6:45 AM CST 6:45 PM CST
Astronomical Twilight 6:14 AM CST 7:16 PM CST
Moon 8:23 PM CST (1/18) 8:50 AM CST (1/18)
Length of Visible Light 10h 56m
Length of Day
10h 00m
Waning Gibbous, 94% of the Moon is Illuminated
Jan 18
Waning Gibbous
Jan 23
Last Quarter
Jan 30
New
Feb 6
First Quarter
Feb 14
Full

Hourly Weather History & Observations

Time (CST) Temp. Windchill Dew Point Humidity Pressure Visibility Wind Dir Wind Speed Gust Speed Precip Events Conditions
12:10 AM 37.4 °F 30.3 °F 15.8 °F 41% 30.01 in 10.0 mi WSW 10.4 mph - N/A   Clear
12:30 AM 35.6 °F 27.5 °F 15.8 °F 44% 30.01 in 10.0 mi WSW 11.5 mph - N/A   Clear
12:50 AM 33.8 °F 25.8 °F 15.8 °F 48% 30.00 in 10.0 mi WSW 10.4 mph - N/A   Clear
1:10 AM 32.0 °F 23.6 °F 15.8 °F 51% 30.00 in 10.0 mi WSW 10.4 mph - N/A   Clear
1:30 AM 33.8 °F 25.8 °F 15.8 °F 48% 29.99 in 10.0 mi WSW 10.4 mph - N/A   Clear
1:50 AM 33.8 °F 25.8 °F 15.8 °F 48% 30.00 in 10.0 mi WSW 10.4 mph - N/A   Clear
2:10 AM 32.0 °F 23.6 °F 15.8 °F 51% 29.99 in 10.0 mi WSW 10.4 mph - N/A   Clear
2:30 AM 32.0 °F 24.2 °F 15.8 °F 51% 29.99 in 10.0 mi WSW 9.2 mph - N/A   Clear
2:50 AM 32.0 °F 23.6 °F 15.8 °F 51% 29.99 in 10.0 mi WSW 10.4 mph - N/A   Clear
3:10 AM 32.0 °F 24.2 °F 17.6 °F 55% 29.98 in 10.0 mi WSW 9.2 mph - N/A   Clear
3:30 AM 32.0 °F 23.0 °F 17.6 °F 55% 29.99 in 10.0 mi WSW 11.5 mph - N/A   Clear
3:50 AM 33.8 °F 24.3 °F 17.6 °F 52% 29.98 in 10.0 mi WSW 13.8 mph - N/A   Clear
4:10 AM 32.0 °F 25.6 °F 17.6 °F 55% 29.98 in 10.0 mi West 6.9 mph - N/A   Clear
4:30 AM 32.0 °F 25.6 °F 17.6 °F 55% 29.97 in 10.0 mi West 6.9 mph - N/A   Clear
4:50 AM 35.6 °F 29.2 °F 17.6 °F 48% 29.96 in 10.0 mi West 8.1 mph - N/A   Clear
5:10 AM 35.6 °F 27.1 °F 19.4 °F 52% 29.97 in 10.0 mi WNW 12.7 mph 18.4 mph N/A   Clear
5:30 AM 35.6 °F 27.5 °F 19.4 °F 52% 29.96 in 10.0 mi WNW 11.5 mph - N/A   Clear
5:50 AM 37.4 °F 29.3 °F 19.4 °F 48% 29.96 in 10.0 mi WNW 12.7 mph - N/A   Clear
6:10 AM 37.4 °F 29.3 °F 19.4 °F 48% 29.96 in 10.0 mi WNW 12.7 mph 18.4 mph N/A   Clear
6:30 AM 35.6 °F 26.6 °F 19.4 °F 52% 29.97 in 10.0 mi WNW 13.8 mph - N/A   Clear
6:50 AM 35.6 °F 28.0 °F 19.4 °F 52% 29.98 in 10.0 mi WNW 10.4 mph - N/A   Clear
7:10 AM 35.6 °F 27.5 °F 19.4 °F 52% 29.98 in 10.0 mi WNW 11.5 mph - N/A   Clear
7:30 AM 35.6 °F 27.1 °F 19.4 °F 52% 29.98 in 10.0 mi West 12.7 mph 18.4 mph N/A   Clear
7:50 AM 35.6 °F 25.5 °F 19.4 °F 52% 29.98 in 10.0 mi West 17.3 mph - N/A   Clear
8:10 AM 35.6 °F 26.6 °F 19.4 °F 52% 29.99 in 10.0 mi West 13.8 mph - N/A   Clear
8:30 AM 35.6 °F 26.2 °F 19.4 °F 52% 29.99 in 10.0 mi West 15.0 mph - N/A   Clear
8:50 AM 37.4 °F 28.5 °F 21.2 °F 52% 30.00 in 10.0 mi West 15.0 mph - N/A   Clear
9:10 AM 39.2 °F 32.0 °F 23.0 °F 52% 30.01 in 10.0 mi West 11.5 mph - N/A   Clear
9:30 AM 44.6 °F 38.8 °F 23.0 °F 43% 30.02 in 9.0 mi WNW 11.5 mph - N/A   Clear
9:50 AM 50.0 °F - 21.2 °F 32% 30.03 in 10.0 mi NW 20.7 mph 27.6 mph N/A   Clear
10:10 AM 53.6 °F - 21.2 °F 28% 30.04 in 10.0 mi NW 20.7 mph 28.8 mph N/A   Clear
10:30 AM 55.4 °F - 23.0 °F 29% 30.05 in 10.0 mi NNW 21.9 mph 27.6 mph N/A   Clear
10:50 AM 57.2 °F - 23.0 °F 27% 30.06 in 10.0 mi North 24.2 mph 33.4 mph N/A   Clear
11:10 AM 57.2 °F - 23.0 °F 27% 30.06 in 10.0 mi North 20.7 mph 31.1 mph N/A   Clear
11:30 AM 57.2 °F - 23.0 °F 27% 30.06 in 10.0 mi NNW 24.2 mph 31.1 mph N/A   Clear
11:50 AM 57.2 °F - 23.0 °F 27% 30.05 in 10.0 mi NNW 23.0 mph 28.8 mph N/A   Clear
12:10 PM 57.2 °F - 23.0 °F 27% 30.05 in 10.0 mi NNW 19.6 mph 27.6 mph N/A   Clear
12:30 PM 57.2 °F - 23.0 °F 27% 30.04 in 10.0 mi North 18.4 mph 28.8 mph N/A   Clear
12:50 PM 57.2 °F - 23.0 °F 27% 30.04 in 10.0 mi NNW 16.1 mph 24.2 mph N/A   Clear
1:10 PM 59.0 °F - 23.0 °F 25% 30.03 in 10.0 mi NNW 18.4 mph 25.3 mph N/A   Clear
1:30 PM 57.2 °F - 23.0 °F 27% 30.03 in 10.0 mi NNW 23.0 mph 27.6 mph N/A   Clear
1:50 PM 59.0 °F - 23.0 °F 25% 30.03 in 10.0 mi NW 23.0 mph 29.9 mph N/A   Clear
2:10 PM 59.0 °F - 23.0 °F 25% 30.03 in 10.0 mi NNW 21.9 mph 32.2 mph N/A   Clear
2:30 PM 59.0 °F - 23.0 °F 25% 30.03 in 10.0 mi NNW 20.7 mph 34.5 mph N/A   Clear
2:50 PM 57.2 °F - 17.6 °F 21% 30.04 in 10.0 mi NNW 20.7 mph 33.4 mph N/A   Clear
3:10 PM 57.2 °F - 17.6 °F 21% 30.05 in 10.0 mi NNW 19.6 mph 32.2 mph N/A   Clear
3:30 PM 57.2 °F - 17.6 °F 21% 30.05 in 10.0 mi NW 25.3 mph 32.2 mph N/A   Clear
3:50 PM 57.2 °F - 17.6 °F 21% 30.06 in 10.0 mi North 24.2 mph 29.9 mph N/A   Clear
4:10 PM 57.2 °F - 17.6 °F 21% 30.07 in 10.0 mi NNW 29.9 mph 34.5 mph N/A   Clear
4:30 PM 57.2 °F - 15.8 °F 20% 30.08 in 10.0 mi NNW 20.7 mph 32.2 mph N/A   Clear
4:50 PM 55.4 °F - 15.8 °F 21% 30.10 in 10.0 mi North 19.6 mph 33.4 mph N/A   Clear
5:10 PM 53.6 °F - 15.8 °F 22% 30.11 in 10.0 mi North 20.7 mph 27.6 mph N/A   Clear
5:30 PM 51.8 °F - 15.8 °F 24% 30.12 in 10.0 mi North 18.4 mph 24.2 mph N/A   Clear
5:50 PM 50.0 °F - 15.8 °F 26% 30.13 in 10.0 mi North 17.3 mph 23.0 mph N/A   Clear
6:10 PM 48.2 °F - 15.8 °F 27% 30.14 in 10.0 mi North 13.8 mph 20.7 mph N/A   Partly Cloudy
6:30 PM 48.2 °F - 15.8 °F 27% 30.14 in 10.0 mi North 13.8 mph - N/A   Partly Cloudy
6:50 PM 46.4 °F 41.9 °F 17.6 °F 32% 30.16 in 10.0 mi North 9.2 mph - N/A   Scattered Clouds
7:10 PM 44.6 °F 39.7 °F 17.6 °F 34% 30.17 in 10.0 mi NNW 9.2 mph - N/A   Partly Cloudy
7:30 PM 42.8 °F 37.5 °F 17.6 °F 36% 30.17 in 10.0 mi North 9.2 mph - N/A   Scattered Clouds
7:50 PM 42.8 °F 38.6 °F 17.6 °F 36% 30.18 in 10.0 mi NNW 6.9 mph - N/A   Partly Cloudy
8:10 PM 41.0 °F 36.4 °F 17.6 °F 39% 30.18 in 10.0 mi NNW 6.9 mph - N/A   Clear
8:30 PM 37.4 °F 32.1 °F 17.6 °F 45% 30.19 in 10.0 mi NW 6.9 mph - N/A   Clear
8:50 PM 37.4 °F 31.4 °F 17.6 °F 45% 30.19 in 10.0 mi NNW 8.1 mph - N/A   Clear
9:10 PM 37.4 °F 32.1 °F 17.6 °F 45% 30.20 in 10.0 mi NNW 6.9 mph - N/A   Clear
9:30 PM 35.6 °F 29.9 °F 17.6 °F 48% 30.20 in 10.0 mi NNW 6.9 mph - N/A   Clear
9:50 PM 32.0 °F 25.6 °F 17.6 °F 55% 30.21 in 10.0 mi NNW 6.9 mph - N/A   Clear
10:10 PM 32.0 °F 26.4 °F 17.6 °F 55% 30.21 in 10.0 mi NNW 5.8 mph - N/A   Clear
10:30 PM 33.8 °F 27.0 °F 17.6 °F 52% 30.22 in 10.0 mi North 8.1 mph - N/A   Clear
10:50 PM 37.4 °F 32.8 °F 19.4 °F 48% 30.22 in 10.0 mi North 5.8 mph - N/A   Clear
11:10 PM 37.4 °F 32.1 °F 19.4 °F 48% 30.21 in 10.0 mi NNW 6.9 mph - N/A   Clear
11:30 PM 35.6 °F 31.7 °F 19.4 °F 52% 30.20 in 10.0 mi NNW 4.6 mph - N/A   Clear
11:50 PM 32.0 °F 26.4 °F 17.6 °F 55% 30.20 in 8.0 mi WNW 5.8 mph - N/A   Clear